C/2004 Q2 (Machholz)

Epoch 2005 Jan. 30.0 TT = JDT 2453400.5  

T 2005 Jan. 24.91121 TT                                 Nakano

q   1.2050454            (2000.0)            P               Q

z  +0.0004433      Peri.   19.50424     -0.32003075     -0.71420609

 +/-0.0000004      Node    93.62406     +0.76513272     -0.58231210

e   0.9994658      Incl.   38.58934     +0.55870586     +0.38835843

From 3403 observations 2004 Aug. 27-2006 July 12, mean residual 0".57.

   Nongravitational parameters A1 = +1.24 +/- 0.01, A2 = +0.1262 +/- 0.0072.

   (1/a)org.= +0.000408, (1/a)fut.= +0.001848 (+/-0.000000), Q= 8.

Residuals in seconds of arc 

2004/                     050105 213  0.4+  0.1+    050415 084  0.3+  0.2+  

040827 413  0.1+  0.5-    050105 A30  0.6+  0.1-    050415 J70  0.1+  0.4-  

040827 413  0.1+  0.5-    050105 A30  0.7+  0.3-    050415 J70  0.3+  0.7-  

040827 413  0.2+  0.5-    050105 A30  0.7+  0.2-    050415 J70  0.4+  0.5+  

040827 413  0.2+  0.5-    050105 A30  0.6+  0.2-    050415 J70  0.3+  0.4-  

040827 413  0.1+  0.5-    050105 A30  0.7+  0.1-    050415 J70  1.5+  0.5-  

040827 413  0.1+  0.5-    050105 A06 (2.6-  2.8-)   050415 939  0.1+  0.2+  

040828 952  0.7+  0.4-    050105 A06 (6.1-  2.0-)   050415 J70  0.5+  0.1-  

040828 952  0.6+  0.4-    050105 A06 (7.3-  3.5-)   050415 J70  0.4+  0.4-  

040828 952  0.1+  0.4-    050106 683  0.5-  1.2-    050415 939  0.0   0.3+  

040828 J95  0.4+  0.3-    050106 683  0.0   0.7-    050415 J70  0.5+  0.4-  

040828 J95  0.3+  0.1+    050106 683  0.9+  1.2-    050415 939  0.0   0.3+  

040828 J95  0.0   0.3-    050106 683  0.3-  0.4-    050415 J70  0.5+  0.2-  

040828 J95  0.3+  0.7-    050106 415  1.2+  0.2-    050415 J70  0.5+  0.4-  

040828 809 (0.4+  3.1-)   050106 415  0.8+  0.3-    050415 J76  0.1-  0.1+  

040828 809  0.0   0.3-    050106 240  0.1+  0.2-    050415 J76  0.1+  0.1+  

040828 809  0.2-  0.3-    050106 240  0.1-  0.1-    050415 J76  0.0   0.1+  

040828 809  0.0   0.3-    050106 240  0.0   0.3-    050415 232  0.5+  0.3+  

040828 809  0.0   0.3-    050106 127  0.7+  0.1-    050415 232  0.4+  0.3+  

040828 809  0.0   0.3-    050106 240  0.1-  0.3-    050415 232  0.4+  0.1+  

040828 H06  0.2+  0.4-    050106 240  0.3-  0.2-    050416 084  0.1-  0.0   

040828 H06  0.1+  0.6-    050106 127  0.4+  0.1-    050416 084  0.1+  0.0   

040828 H06  0.3-  0.5-    050106 240  0.7-  0.3-    050416 J76  0.5+  0.7+  

040828 467  0.1-  0.6-    050106 240  0.3-  0.3-    050416 J76  0.7+  0.3+  

040828 467  0.3+  0.5-    050106 127  0.4+  0.2+    050416 J76  0.2+  0.5+  

040828 467  0.3+  0.3-    050106 127  0.4+  0.2+    050416 213  0.1+  0.5+  

040828 467  0.7+  0.6-    050106 127  0.3+  0.2+    050416 213  0.0   0.5+  

040828 415  0.7+  0.4+    050106 442 (0.5-  4.1+)   050416 213  0.0   0.4+  

040828 415  0.2+  0.0     050106 442 (0.7-  2.8+)   050417 049 (2.6+  7.2-) 

040828 415  0.1-  1.5-    050106 442 (1.3-  2.5-)   050417 049 (0.4-  4.7+) 

040828 467  0.3+  0.6-    050106 442  0.8-  1.3-    050417 049 (0.2-  3.5+) 

040828 415  0.2-  1.6-    050106 A46  0.3+  0.6-    050417 084  0.1-  0.2+  

040828 467  0.1+  0.5-    050106 A46  0.4+  0.3-    050417 084  0.0   0.0   

040829 213  0.2-  0.5-    050106 160  0.5+  0.3-    050418 372  0.7+  0.4+  

040829 213  0.3+  0.5+    050106 A46  0.0   0.4-    050418 372  0.4-  0.1-  

040829 809  0.1+  0.6-    050106 160  0.4+  0.2-    050418 213  0.4+  0.0   

040830 673  0.2+  0.3-    050106 160  0.5+  0.2-    050418 213  0.5+  0.9-  

040830 673  0.1+  0.4-    050106 A54  0.2-  0.9+    050418 J97  0.6+  0.1-  

040830 673  0.2+  0.3-    050106 A54  0.8-  0.9+    050418 J97  0.0   0.0   

040830 673  0.2+  0.4-    050106 160  0.5+  0.4-    050418 049 (0.4+  2.0-) 

040830 467  0.2+  0.4-    050106 A54  0.5-  1.3+    050418 J97  0.4+  0.0   

040830 467  0.2+  0.3-    050106 A54  1.2-  1.5+    050418 049 (0.4-  2.3-) 

040830 467  0.2+  0.4-    050106 160  0.5+  0.3-    050418 049 (0.2-  2.4-) 

040830 D87 (0.7-  2.1+)   050106 A54  0.1-  0.9+    050418 049 (1.3+  2.0-) 

040830 D87  0.8-  0.5+    050106 A54  0.2-  0.7+    050418 049  1.5+  1.5-  

040830 D87 (1.6-  3.7-)   050106 A54  1.1-  1.1+    050418 084  0.1-  0.1+  

040830 D87 (2.8+  1.5+)   050106 A54  0.9-  1.2+    050419 084  0.0   0.1+  

040831 J95  0.3+  0.1-    050106 A54  0.7-  0.7+    050419 084  0.2-  0.0   

040831 J95  0.2+  0.2-    050106 A54  1.2-  0.9+    050420 084  0.4-  0.0   

040831 J95  0.2+  0.4-    050106 J78  0.4+  0.0     050420 084  0.5-  0.3+  

040831 859  0.1+  0.3-    050106 J78  0.5+  0.1+    050420 084  0.1-  0.0   

040831 859  0.1+  0.4-    050106 J78  0.5+  0.4+    050420 084  0.1-  0.0   

040831 859  0.1+  0.5-    050106 J78  0.4+  0.0     050421 084  0.2-  0.2+  

040831 859  0.3+  0.3-    050106 A46  0.1+  0.2-    050421 A32  0.0   0.1+  

040831 415  0.1+  0.5-    050106 A46  0.3+  0.2-    050421 A32  0.1-  0.2+  

040831 415  0.5+  0.4-    050106 A46  0.1+  0.5-    050421 A32  0.2-  0.2+  

040831 415  0.3+  0.4-    050106 213  0.1-  0.3-    050421 A32  0.0   0.2+  

040831 349  0.3+  0.4-    050106 213  0.1+  0.3-    050422 699 (2.1+  5.3-) 

040831 349  0.0   0.3-    050106 213  0.2+  0.2-    050422 704 (1.7-  5.0+) 

040831 349  0.3+  0.4-    050107 945  1.2-  1.9+    050422 699 (0.6+  2.5-) 

040831 349  0.3+  0.4-    050107 945 (0.2-  2.1+)   050422 704  0.6-  0.4+  

040831 372  0.1-  0.3+    050107 945 (0.7-  2.1+)   050422 699  0.1+  1.1-  

040831 372  0.0   0.1-    050107 945 (0.7-  2.1+)   050422 704  0.0   0.8-  

040831 372  0.1+  0.1+    050107 726  0.3+  0.5-    050422 704  0.9-  0.3+  

040831 D74  0.3-  0.3+    050107 945 (0.0   2.2+)   050422 699 (0.5+  2.8-) 

040831 372  0.0   0.3+    050107 726  0.2+  0.5-    050422 704 (3.0+ 12.5-) 

040831 372  0.3-  0.6-    050107 726  0.5-  0.5-    050422 349  0.2+  0.1-  

040831 D74  0.4+  0.5+    050107 726  0.5-  0.4-    050422 349  0.1+  0.2-  

040831 D74  0.2+  0.5+    050107 726  0.1-  0.6-    050422 349  0.0   0.0   

040901 J95  0.5+  0.3-    050107 726  0.0   0.5-    050422 349  0.1+  0.2-  

040901 J95  0.4+  1.0-    050107 726  0.7-  0.5-    050422 084  0.1-  0.2+  

040901 J95  0.3+  0.4-    050107 726  0.2+  0.6-    050422 084  0.0   0.1+  

040901 415  0.1+  0.1+    050107 726  0.7-  0.5-    050422 A32  0.1-  0.1+  

040901 415  0.2+  0.5+    050107 J76  0.7+  0.4-    050422 A32  0.2+  0.1+  

040901 D86  1.5-  0.8-    050107 J76  0.4+  0.5-    050422 A32  0.1-  0.2+  

040901 D86  0.3-  0.5-    050107 J76  0.7+  0.5-    050423 212  0.7+  0.1+  

040901 D86  1.0-  0.8+    050107 213  0.5+  0.2-    050423 212  0.6+  0.2+  

040902 620  0.3+  0.3-    050107 213  0.4+  0.3-    050423 212  0.6+  0.1+  

040902 620  0.3+  0.5-    050107 213  0.4+  0.3-    050423 A32  0.2-  0.4+  

040902 620  0.2+  0.4-    050107 442  1.1-  0.7-    050423 A32  0.2-  0.3+  

040903 415  0.6+  0.4+    050107 A46  1.3+  0.3-    050423 A32  0.0   0.3+  

040903 415  0.4+  0.2-    050107 A46  1.0+  0.5-    050423 A32  0.2-  0.3+  

040903 415  0.1+  0.1-    050107 A46  0.7+  0.1-    050424 J71  0.1+  0.3-  

040904 J95  0.1+  0.2+    050107 A46  0.6+  1.4+    050424 J71  0.1+  0.5-  

040904 J95  0.2+  0.3-    050107 A06 (1.9+  2.5-)   050424 J71  0.2+  0.2-  

040904 J95  0.0   0.0     050107 A46  0.4+  1.0+    050424 J70  0.1-  0.4-  

040905 859  0.4+  0.4-    050107 A46  0.5+  0.8+    050424 J70  0.1-  1.0-  

040905 859  0.0   0.5-    050107 A06 (1.4+  2.9-)   050424 J97  0.0   0.5+  

040905 859  0.3+  0.6-    050107 A06 (1.6+  2.4-)   050424 J70  0.0   0.6-  

040905 859  0.2-  0.2-    050107 939  0.5+  0.2+    050424 J97  0.0   0.1+  

040906 859  0.2+  0.4-    050107 939  0.4+  0.1+    050424 J70 (0.2-  2.1-) 

040906 859  0.1-  0.5-    050107 939  0.3+  0.2+    050424 J70  0.2+  0.7-  

040906 859  0.4+  0.5-    050107 A01  0.7+  0.5-    050424 213  0.1-  0.1+  

040906 859  0.4+  0.5-    050107 A01  0.5+  0.5-    050424 213  0.0   0.2+  

040906 859  0.3+  0.5-    050107 A01  0.6+  0.6-    050424 213  0.1+  0.1+  

040906 415  0.1-  0.8-    050108 J78  1.1+  0.2-    050425 084  0.1-  0.0   

040906 415  0.0   0.5-    050108 J78  0.8+  0.0     050425 084  0.2-  0.3+  

040907 859  0.4+  0.5-    050108 J78  1.0+  0.1+    050425 A32  0.1-  0.3+  

040907 859  0.0   0.5-    050108 945  0.2+  0.6+    050425 A32  0.1-  0.2+  

040908 615  0.4+  0.4-    050108 945  0.2+  0.4+    050425 A32  0.1+  0.1+  

040908 615  0.4+  0.3-    050108 945  0.4+  0.6+    050425 A32  0.2-  0.0   

040908 615  0.3+  0.3-    050108 945  0.3+  0.6+    050425 084  0.2-  0.2+  

040908 615  0.4+  0.3-    050108 945  0.3+  0.6+    050425 084  0.2-  0.1+  

040908 859  0.3+  0.6-    050108 726  0.1+  0.3-    050425 049  1.1+  1.8-  

040908 859  0.6+  0.2-    050108 726  1.0+  0.4-    050425 049 (0.7+  2.0-) 

040908 859  0.1+  0.7-    050108 726  0.4-  0.4-    050425 049 (1.6+  2.0-) 

040908 859  0.1+  0.7-    050108 726  0.2+  0.2-    050426 619  0.0   0.6-  

040908 415  0.1+  0.1-    050108 726  0.5+  0.3-    050426 619  0.1-  0.9+  

040908 D74  0.5-  0.3+    050108 726  0.3-  0.3-    050426 619  0.1+  0.5-  

040908 D74  0.5+  0.4+    050108 379  0.3+  0.6-    050427 049  0.4-  1.9-  

040909 D86  0.1-  0.1-    050108 379  0.2-  0.7-    050427 049  0.2-  1.4-  

040909 D86  0.4+  0.5-    050108 379  0.2-  0.1-    050427 049  0.3-  1.7-  

040909 D86  0.9-  0.9-    050108 379  0.5+  1.2-    050428 704 (1.1-  3.7+) 

040910 844  0.1+  1.3-    050108 379  0.6+  1.1-    050428 704  0.1+  0.8-  

040910 844  0.2+  1.3-    050108 379  0.3+  0.8-    050428 704  0.2+  0.7-  

040910 844  0.3+  0.9-    050108 900  0.4+  0.2-    050428 704  0.3-  0.2-  

040910 844  0.4+  1.3-    050108 900  0.3+  0.2+    050428 704 (0.6+  2.6-) 

040910 844  0.5+  0.8-    050108 442 (2.5-  3.3-)   050428 372  0.2+  1.2+  

040910 372  0.4+  1.2-    050108 442 (2.5+  6.2-)   050428 379  0.2+  0.3+  

